User: anonymous   Login
Location: Vancouver
(49.2500°N, 123.1330°W)
Time: 10:37:59
(UTC-07:00)
Language:

Cosmos 676 Rocket - Orbit

View from above orbital plane
View from above orbital plane
View from above satellite
View from above satellite

Ground track
Ground track

The orbit data is extracted from the following two-line orbital elements,

1 07434U 74071B   18113.16651086  .00000049  00000-0  25337-4 0  9991
2 07434  74.0489   4.7489 0021171 201.2731 158.7544 14.36667921281226
Epoch (UTC): 23 April 2018 03:59:46
Eccentricity: 0.0021171
inclination: 74.0489°
perigee height: 754 km
apogee height: 784 km
right ascension of ascending node: 4.7489°
argument of perigee: 201.2731°
revolutions per day: 14.36667921
mean anomaly at epoch: 158.7544°
orbit number at epoch: 28122

The dashed part of the orbit path shows where the satellite is in the earth's shadow,  

DLR